Weather Roundup
Issued by NWS Corpus Christi, TX

Home | Current Version | Previous Version | Text Only | Print | Product List | Glossary On
Versions: 1 2 3 4 5 6 7 8 9 10 11 12 13 14 15 16 17 18 19 20 21 22 23 24 25 26 27 28 29 30 31 32 33 34 35 36 37 38 39 40 41 42 43 44 45 46 47 48 49 50
000
ASUS44 KCRP 270210
HRRCRP

SOUTH TEXAS REGIONAL WEATHER ROUNDUP
NATIONAL WEATHER SERVICE CORPUS CHRISTI TX
900 PM CDT MON JUN 26 2017


TXZ229>244-270300-
...CORPUS CHRISTI AREA OBSERVATIONS...

CITY           SKY/WX    TMP DP  RH WIND       PRES   REMARKS
CORPUS CHRISTI CLOUDY    84  74  71 E8        29.97R HX  91
NAS CORPUS CHR CLOUDY    83  75  77 E8        29.96S HX  90
ROCKPORT       CLOUDY    82  73  74 SE9       29.97R
KINGSVILLE NAS MOCLDY    80  77  90 E6        29.96S
ALICE          CLOUDY    81  72  74 E8        29.96S
ORANGE GROVE   CLOUDY    83  74  74 E9        29.97F
FALFURRIAS     CLOUDY    82  73  73 E6        29.95F
$$

...VICTORIA AREA OBSERVATIONS...

CITY           SKY/WX    TMP DP  RH WIND       PRES   REMARKS
VICTORIA       PTCLDY    79  74  84 CALM      30.00S
BEEVILLE       FAIR      77  73  88 E5        29.98F
PLEASANTON     CLOUDY    82  69  64 SE9G16    29.98R
SAN ANTONIO    LGT RAIN  81  69  67 E12       30.02R
$$

...LAREDO AREA OBSERVATIONS...

CITY           SKY/WX    TMP DP  RH WIND       PRES   REMARKS
LAREDO         CLEAR     81  73  76 E13G18    29.96R
COTULLA        CLEAR     82  72  71 SE14      29.96R
DEL RIO        CLOUDY    83  68  60 NE16G22   29.96R
MCALLEN        MOCLDY    85  72  65 E12       29.94R HX  91
HEBBRONVILLE   CLOUDY    78  70  77 CALM      29.98S
$$

...OTHER TEXAS OBSERVATIONS...

CITY           SKY/WX    TMP DP  RH WIND       PRES   REMARKS
BROWNSVILLE    PTCLDY    80  73  79 E6        29.94S
HOUSTON        CLOUDY    78  72  81 SE7       30.00S
COL. STATION   MOCLDY    77  71  82 SE10      30.01R
AUSTIN         TSTM      76  74  93 SW7       30.02R FOG
WACO           MOCLDY    82  73  74 E6        30.01R
FORT WORTH     CLOUDY    82  70  66 SE7       30.01R
WICHITA FALLS  CLEAR     78  69  73 SE8       30.02R
LUBBOCK        PTCLDY    78  61  55 S7        30.10S
EL PASO        MOCLDY    90  54  29 N5        30.05R
$$

...MARINE OBSERVATIONS...

STATION/POSITION TIME  SKY/WX   TEMP    WIND        PRES    VSBY  WAVE   SWELL
                                AIR SEA DIR/SP/G                  HT/PER HT/PER
                 (UTC)          (F)     (DEG/KT/KT) (MB)    (MI)  (FT/S) (FT/S)
PORT ARANSAS     0200            82 85  100/ 10/ 11 1015.0R
BUOY 90 E PORT A 0150            81 85   60/ 14/ 16 1014.9F         3/ 5
BUOY 45 SE BAFFI 0050            82     120/ 10/ 12 1013.4          3/ 6   2/ 6
BUOY 200 E PT IS 0050            82 83  130/  6/  8 1014.9          3/ 5   3/ 5
BUOY 15 E GALVES 0050            82 83  120/ 10/ 12 1016.1          2/ 6   2/ 6
$$




USA.gov is the U.S. government's official web portal to all federal, state and local government web resources and services.